Find Kosmos-1225

NORAD ID: 12087 Int'l Des: 1980-097 Owner: VMF Country: SU operational
LEOCIRCULARPOLAR

リアルタイム位置

3D地球を読み込み中...

Kosmos-1225について

説明を読み込み中...

次回通過

Passes for default location (London). Set your location on the main map for personalized predictions.

高度履歴

Loading altitude history...

軌道要素

1 12087U 80097A 26104.93953366 .00000067 00000-0 53886-4 0 9996
2 12087 82.9478 162.2317 0055029 229.4884 304.3265 13.74749889274745
Epoch: Apr 14, 2026 • Age: 9 hours

現在のステータス

高度 988.2 km
速度 7.37 km/s
衛星直下点 -71.00°S, 179.99°W
打ち上げ日 Dec 5, 1980
運用期間 45.3 years
タイプ other

技術仕様

分類 Payload
質量 800.00 kg
乾燥質量 800.00 kg
総質量 800.00 kg
長さ 5.00 m
直径 2.10 m
スパン 17.00 m
形状 Cyl + Ant
製造者 OAZ
バスタイプ KAUR-1 11F627
フェーズステータス In Orbit
所有者/国 VMF/SU

Most Searched